TimeEST,TemperatureF,Dew PointF,Humidity,Sea Level PressureIn,VisibilityMPH,Wind Direction,Wind SpeedMPH,Gust SpeedMPH,PrecipitationIn,Events,Conditions,WindDirDegrees,DateUTC
12:53 AM,28.0,21.9,78,30.47,10.0,Calm,Calm,-,N/A,,Clear,0,2012-11-17 05:53:00
1:53 AM,26.1,21.0,81,30.49,10.0,Calm,Calm,-,N/A,,Clear,0,2012-11-17 06:53:00
2:53 AM,26.1,21.9,84,30.50,10.0,North,3.5,-,N/A,,Clear,10,2012-11-17 07:53:00
3:53 AM,27.0,21.0,78,30.52,10.0,Calm,Calm,-,N/A,,Clear,0,2012-11-17 08:53:00
4:53 AM,26.1,19.9,78,30.55,10.0,North,6.9,-,N/A,,Clear,360,2012-11-17 09:53:00
5:53 AM,26.1,21.0,81,30.57,10.0,North,5.8,-,N/A,,Clear,360,2012-11-17 10:53:00
6:53 AM,28.0,21.9,78,30.60,10.0,North,6.9,-,N/A,,Clear,360,2012-11-17 11:53:00
7:53 AM,33.1,25.0,72,30.62,10.0,NNE,3.5,-,N/A,,Clear,20,2012-11-17 12:53:00
8:53 AM,37.0,27.0,67,30.63,10.0,Calm,Calm,-,N/A,,Clear,0,2012-11-17 13:53:00
9:53 AM,42.1,28.0,58,30.65,10.0,Variable,5.8,-,N/A,,Clear,0,2012-11-17 14:53:00
10:53 AM,45.0,28.0,52,30.63,10.0,NE,8.1,-,N/A,,Clear,50,2012-11-17 15:53:00
11:53 AM,46.0,28.0,50,30.61,10.0,NNE,10.4,-,N/A,,Clear,30,2012-11-17 16:53:00
12:53 PM,48.0,28.0,46,30.60,10.0,NE,8.1,-,N/A,,Clear,40,2012-11-17 17:53:00
1:53 PM,50.0,27.0,41,30.59,10.0,NE,5.8,-,N/A,,Clear,40,2012-11-17 18:53:00
2:53 PM,50.0,24.1,36,30.59,10.0,NNE,5.8,-,N/A,,Clear,30,2012-11-17 19:53:00
3:53 PM,48.0,23.0,37,30.60,10.0,Calm,Calm,-,N/A,,Clear,0,2012-11-17 20:53:00
4:53 PM,41.0,26.1,55,30.61,10.0,North,3.5,-,N/A,,Clear,10,2012-11-17 21:53:00
5:53 PM,36.0,26.1,67,30.63,10.0,Calm,Calm,-,N/A,,Clear,0,2012-11-17 22:53:00
6:53 PM,32.0,26.1,79,30.64,10.0,Calm,Calm,-,N/A,,Clear,0,2012-11-17 23:53:00
7:53 PM,30.9,25.0,79,30.65,9.0,North,3.5,-,N/A,,Clear,10,2012-11-18 00:53:00
8:53 PM,28.9,24.1,82,30.66,10.0,Calm,Calm,-,N/A,,Clear,0,2012-11-18 01:53:00
9:53 PM,28.9,25.0,85,30.68,7.0,Calm,Calm,-,N/A,,Clear,0,2012-11-18 02:53:00
10:53 PM,28.0,24.1,85,30.68,7.0,Calm,Calm,-,N/A,,Clear,0,2012-11-18 03:53:00
11:53 PM,28.9,25.0,85,30.68,9.0,North,3.5,-,N/A,,Clear,360,2012-11-18 04:53:00